Weather History for Montrose, CO

Change the Weather History Date:

Tuesday, June 26, 2012

  Actual Average Record
Temperature  
Mean Temperature 83 °F 71 °F  
Max Temperature 95 °F 88 °F 97 °F (2007)
Min Temperature 70 °F 55 °F 45 °F (2003)
Degree Days  
Heating Degree Days 0 0  
Month to date heating degree days 6 38  
Since 1 June heating degree days 6 38  
Since 1 July heating degree days 5665 6202  
Cooling Degree Days 18 6  
Month to date cooling degree days 210 106  
Year to date cooling degree days 233 123  
Since 1 June cooling degree days 210 106  
Growing Degree Days 32 (Base 50)    
Moisture  
Dew Point 38 °F    
Average Humidity 22    
Maximum Humidity 32    
Minimum Humidity 12    
Precipitation  
Precipitation 0.00 in 0.03 in 0.07 in (2008)
Month to date precipitation 0.00 0.65  
Year to date precipitation 1.56 4.95  
Sea Level Pressure  
Sea Level Pressure 29.75 in    
Wind  
Wind Speed 10 mph (SSW)    
Max Wind Speed 29 mph    
Max Gust Speed 45 mph    
Visibility 10 miles    
Events      
T = Trace of Precipitation, MM = Missing Value Source: NWS Daily Summary

Daily Weather History Graph

Daily Weather History Graph

Search for Another Location

Airport:

Trip Planner

Search our weather history database for the weather conditions in past years. The results will help you decide how hot, cold, wet, or windy it might be!

Date:

Astronomy

Jun. 26, 2012 Rise Set
Actual Time 5:49 AM MDT 8:39 PM MDT
Civil Twilight 5:17 AM MDT 9:11 PM MDT
Nautical Twilight 4:37 AM MDT 9:51 PM MDT
Astronomical Twilight 3:51 AM MDT 10:37 PM MDT
Moon 1:03 PM MDT (6/26) 12:14 AM MDT (6/26)
Length of Visible Light 15h 54m
Length of Day
14h 50m
Waxing Crescent, 46% of the Moon is Illuminated
Jun 26
Waxing Crescent
Jun 26
First Quarter
Jul 3
Full
Jul 10
Last Quarter
Jul 18
New

Hourly Weather History & Observations

Time (MDT) Temp. Dew Point Humidity Pressure Visibility Wind Dir Wind Speed Gust Speed Precip Events Conditions
12:53 AM 75.9 °F 33.1 °F 21% 29.74 in 10.0 mi SSE 12.7 mph - N/A   Clear
1:53 AM 73.0 °F 35.1 °F 25% 29.75 in 10.0 mi ESE 6.9 mph - N/A   Clear
2:53 AM 71.1 °F 36.0 °F 28% 29.76 in 10.0 mi SE 9.2 mph - N/A   Clear
3:53 AM 71.1 °F 35.1 °F 27% 29.77 in 10.0 mi SE 9.2 mph - N/A   Clear
4:53 AM 70.0 °F 35.1 °F 28% 29.78 in 10.0 mi SE 8.1 mph - N/A   Clear
5:53 AM 70.0 °F 36.0 °F 29% 29.79 in 10.0 mi SSE 9.2 mph - N/A   Clear
6:53 AM 72.0 °F 37.0 °F 28% 29.80 in 10.0 mi ESE 8.1 mph - N/A   Clear
7:53 AM 78.1 °F 42.1 °F 28% 29.80 in 10.0 mi ESE 4.6 mph - N/A   Clear
8:53 AM 81.0 °F 42.1 °F 25% 29.81 in 10.0 mi NNW 3.5 mph - N/A   Scattered Clouds
9:53 AM 82.9 °F 42.1 °F 24% 29.81 in 10.0 mi North 6.9 mph - N/A   Partly Cloudy
10:53 AM 84.9 °F 43.0 °F 23% 29.81 in 10.0 mi West 9.2 mph - N/A   Partly Cloudy
11:53 AM 88.0 °F 41.0 °F 19% 29.77 in 10.0 mi South 6.9 mph - N/A   Clear
12:34 PM 91.4 °F 37.4 °F 15% 30.06 in 10.0 mi SW 13.8 mph - N/A   Partly Cloudy
12:53 PM 91.9 °F 39.0 °F 16% 29.74 in 10.0 mi SW 12.7 mph 24.2 mph N/A   Partly Cloudy
1:53 PM 93.0 °F 37.9 °F 15% 29.73 in 10.0 mi WSW 16.1 mph 25.3 mph N/A   Partly Cloudy
2:53 PM 91.9 °F 37.9 °F 15% 29.71 in 10.0 mi WSW 18.4 mph 24.2 mph N/A   Clear
3:53 PM 93.0 °F 34.0 °F 12% 29.70 in 10.0 mi SW 13.8 mph 26.5 mph N/A   Clear
4:53 PM 91.9 °F 35.1 °F 13% 29.69 in 10.0 mi WSW 15.0 mph 27.6 mph N/A   Clear
5:53 PM 91.9 °F 37.0 °F 15% 29.67 in 10.0 mi SW 11.5 mph - N/A   Clear
6:53 PM 90.0 °F 37.0 °F 15% 29.66 in 10.0 mi WSW 18.4 mph 27.6 mph N/A   Clear
7:53 PM 89.1 °F 37.9 °F 16% 29.65 in 10.0 mi WSW 12.7 mph - N/A   Clear
8:53 PM 84.0 °F 39.9 °F 21% 29.66 in 10.0 mi SW 4.6 mph - N/A   Clear
9:53 PM 81.0 °F 39.9 °F 23% 29.68 in 10.0 mi WSW 5.8 mph - N/A   Clear
10:53 PM 80.1 °F 39.9 °F 24% 29.70 in 10.0 mi SE 5.8 mph - N/A   Partly Cloudy
11:53 PM 79.0 °F 46.0 °F 31% 29.73 in 10.0 mi SW 23.0 mph 34.5 mph N/A   Mostly Cloudy